4XLOK LOWW-LHBP

Flight info

Callsign 4XLOK
Flight time N/A
Altitude 23000
Route ADAMA Z647 ANEXA
Aircraft C25B/M-SDE2E3FGHRWXY/LB1

Departure

Time 2026-04-21 16:17
Airport Vienna International Airport (LOWW)

Arrival

Time N/A
Airport Budapest Liszt Ferenc International Airport (LHBP)
Time Latitude Longitude Altitude Speed Heading
2026-04-21 15:55 48.12365 16.54237 605 ft 0 kts 26°
2026-04-21 16:08 48.12333 16.54215 605 ft 4 kts 25°
2026-04-21 16:08 48.12308 16.54200 614 ft 4 kts 15°
2026-04-21 16:08 48.12289 16.54207 609 ft 1 kts 296°
2026-04-21 16:09 48.12287 16.54213 618 ft 0 kts 296°
2026-04-21 16:12 48.12288 16.54207 609 ft 5 kts 280°
2026-04-21 16:13 48.12276 16.54187 613 ft 1 kts 145°
2026-04-21 16:13 48.12234 16.54196 614 ft 12 kts 156°
2026-04-21 16:13 48.12171 16.54323 608 ft 19 kts 115°
2026-04-21 16:13 48.12104 16.54530 612 ft 25 kts 116°
2026-04-21 16:14 48.12017 16.54794 613 ft 31 kts 116°
2026-04-21 16:14 48.11917 16.55110 613 ft 36 kts 115°
2026-04-21 16:14 48.11801 16.55464 611 ft 40 kts 116°
2026-04-21 16:14 48.11673 16.55852 612 ft 43 kts 116°
2026-04-21 16:15 48.11536 16.56269 608 ft 46 kts 116°
2026-04-21 16:15 48.11397 16.56697 609 ft 45 kts 116°
2026-04-21 16:15 48.11261 16.57116 610 ft 44 kts 116°
2026-04-21 16:15 48.11168 16.57227 605 ft 15 kts 203°
2026-04-21 16:16 48.11087 16.57120 605 ft 17 kts 250°
2026-04-21 16:16 48.11110 16.56930 605 ft 32 kts 295°
2026-04-21 16:16 48.11392 16.56066 616 ft 152 kts 296°
2026-04-21 16:16 48.11949 16.54273 1131 ft 215 kts 296°
2026-04-21 16:17 48.12499 16.52265 2927 ft 221 kts 295°
2026-04-21 16:17 48.13146 16.49934 4107 ft 254 kts 296°
2026-04-21 16:17 48.13754 16.47721 5203 ft 206 kts 296°
2026-04-21 16:17 48.14236 16.45895 6000 ft 173 kts 296°
2026-04-21 16:18 48.14634 16.44318 6591 ft 153 kts 295°
2026-04-21 16:18 48.14905 16.42840 7009 ft 150 kts 274°
2026-04-21 16:18 48.14347 16.41481 7385 ft 168 kts 213°
2026-04-21 16:18 48.13200 16.41305 7822 ft 171 kts 165°
2026-04-21 16:19 48.12058 16.41768 8310 ft 168 kts 168°
2026-04-21 16:19 48.10950 16.42278 8760 ft 167 kts 152°
2026-04-21 16:19 48.09936 16.43108 9215 ft 166 kts 153°
2026-04-21 16:19 48.08901 16.43870 9687 ft 166 kts 152°
2026-04-21 16:20 48.07856 16.44697 10177 ft 178 kts 152°
2026-04-21 16:20 48.06717 16.45605 10771 ft 191 kts 152°
2026-04-21 16:20 48.05527 16.46588 11446 ft 199 kts 148°
2026-04-21 16:20 48.04330 16.47655 12160 ft 202 kts 156°
2026-04-21 16:21 48.02972 16.48180 12898 ft 203 kts 176°
2026-04-21 16:21 48.01566 16.48391 13678 ft 204 kts 177°
2026-04-21 16:21 48.00633 16.48546 14170 ft 204 kts 177°
2026-04-21 16:21 47.98746 16.48895 15117 ft 204 kts 176°
2026-04-21 16:22 47.97815 16.49091 15593 ft 205 kts 172°
2026-04-21 16:22 47.96519 16.50010 16279 ft 210 kts 147°
2026-04-21 16:22 47.95466 16.51525 16982 ft 213 kts 123°
2026-04-21 16:22 47.94853 16.53527 17699 ft 213 kts 104°
2026-04-21 16:23 47.94754 16.55705 18406 ft 211 kts 81°
2026-04-21 16:23 47.95120 16.57795 19031 ft 207 kts 64°
2026-04-21 16:23 47.95598 16.59825 19665 ft 209 kts 68°
2026-04-21 16:23 47.96057 16.61884 20295 ft 209 kts 65°
2026-04-21 16:24 47.96531 16.63929 20933 ft 210 kts 66°
2026-04-21 16:24 47.97006 16.65990 21574 ft 210 kts 65°
2026-04-21 16:24 47.97489 16.68090 22223 ft 211 kts 66°
2026-04-21 16:24 47.97968 16.70168 22868 ft 212 kts 65°
2026-04-21 16:25 47.98478 16.72367 22997 ft 240 kts 66°
2026-04-21 16:25 47.99054 16.74859 23008 ft 268 kts 66°
2026-04-21 16:25 47.99636 16.77636 23003 ft 293 kts 74°
2026-04-21 16:25 47.99808 16.80676 23006 ft 314 kts 84°
2026-04-21 16:26 48.00020 16.84347 23003 ft 332 kts 82°
2026-04-21 16:26 48.00243 16.87836 23115 ft 342 kts 82°
2026-04-21 16:26 48.00448 16.91447 23126 ft 354 kts 83°
2026-04-21 16:26 48.00649 16.95168 23111 ft 364 kts 83°
2026-04-21 16:27 48.00862 16.98970 23101 ft 372 kts 83°
2026-04-21 16:27 48.01069 17.02856 23109 ft 378 kts 85°
2026-04-21 16:27 48.00873 17.06751 23107 ft 374 kts 97°
2026-04-21 16:27 48.00556 17.10574 23110 ft 368 kts 94°
2026-04-21 16:28 48.00325 17.14360 23104 ft 364 kts 94°
2026-04-21 16:28 48.00036 17.18100 23108 ft 361 kts 95°
2026-04-21 16:28 47.99733 17.21811 23106 ft 359 kts 95°
2026-04-21 16:28 47.99445 17.25498 23106 ft 357 kts 95°
2026-04-21 16:29 47.99167 17.29168 23100 ft 355 kts 95°
2026-04-21 16:29 47.98882 17.32825 23100 ft 354 kts 95°
2026-04-21 16:29 47.98526 17.36454 23098 ft 353 kts 99°
2026-04-21 16:29 47.98101 17.40064 23093 ft 352 kts 98°
2026-04-21 16:30 47.97713 17.43664 23092 ft 352 kts 98°
2026-04-21 16:30 47.97319 17.47264 23087 ft 351 kts 98°
2026-04-21 16:30 47.96913 17.50860 23086 ft 351 kts 98°
2026-04-21 16:30 47.96502 17.54448 23084 ft 351 kts 98°
2026-04-21 16:31 47.96100 17.58040 23083 ft 351 kts 98°
2026-04-21 16:31 47.95693 17.61621 23082 ft 351 kts 98°
2026-04-21 16:31 47.95288 17.65205 23079 ft 350 kts 98°
2026-04-21 16:31 47.94875 17.68789 23074 ft 350 kts 98°
2026-04-21 16:32 47.94470 17.72373 23083 ft 350 kts 98°
2026-04-21 16:32 47.94056 17.75948 23081 ft 350 kts 98°
2026-04-21 16:32 47.93648 17.79528 23081 ft 350 kts 98°
2026-04-21 16:32 47.93232 17.83107 23080 ft 350 kts 98°
2026-04-21 16:33 47.92821 17.86690 23081 ft 351 kts 98°
2026-04-21 16:33 47.92402 17.90276 23079 ft 351 kts 99°
2026-04-21 16:33 47.91988 17.93859 23079 ft 351 kts 98°
2026-04-21 16:33 47.91569 17.97437 23079 ft 351 kts 99°
2026-04-21 16:34 47.91152 18.01021 23077 ft 351 kts 99°
2026-04-21 16:34 47.90729 18.04599 23079 ft 351 kts 99°
2026-04-21 16:34 47.90312 18.08176 23077 ft 351 kts 99°
2026-04-21 16:34 47.89887 18.11753 23073 ft 351 kts 99°
2026-04-21 16:35 47.89467 18.15325 23078 ft 350 kts 99°
2026-04-21 16:35 47.89040 18.18907 23074 ft 350 kts 99°
2026-04-21 16:35 47.88617 18.22483 23075 ft 350 kts 99°
2026-04-21 16:35 47.88193 18.26054 23077 ft 350 kts 99°
2026-04-21 16:36 47.87765 18.29629 23076 ft 351 kts 99°
2026-04-21 16:36 47.87330 18.33203 23075 ft 351 kts 99°
2026-04-21 16:36 47.86904 18.36775 23076 ft 350 kts 99°
2026-04-21 16:36 47.86221 18.40240 23072 ft 350 kts 114°
2026-04-21 16:37 47.85050 18.43404 23067 ft 348 kts 127°
2026-04-21 16:37 47.83450 18.46087 23065 ft 346 kts 139°
2026-04-21 16:37 47.81518 18.48193 23004 ft 344 kts 153°
2026-04-21 16:37 47.79312 18.49653 22598 ft 341 kts 167°
2026-04-21 16:38 47.77050 18.50364 22165 ft 324 kts 177°
2026-04-21 16:38 47.74852 18.50792 21748 ft 314 kts 176°
2026-04-21 16:38 47.72720 18.51241 21342 ft 305 kts 177°
2026-04-21 16:38 47.70641 18.51674 20946 ft 298 kts 177°
2026-04-21 16:39 47.68607 18.52089 20566 ft 292 kts 177°
2026-04-21 16:39 47.66610 18.52496 20179 ft 287 kts 177°
2026-04-21 16:39 47.64646 18.52901 19802 ft 283 kts 177°
2026-04-21 16:39 47.62711 18.53297 19435 ft 280 kts 177°
2026-04-21 16:40 47.60816 18.53951 19063 ft 282 kts 163°
2026-04-21 16:40 47.59074 18.55301 18696 ft 284 kts 149°
2026-04-21 16:40 47.57600 18.57259 18314 ft 286 kts 134°
2026-04-21 16:40 47.56281 18.59450 17919 ft 284 kts 134°
2026-04-21 16:41 47.55412 18.60879 17675 ft 282 kts 134°
2026-04-21 16:41 47.53666 18.63754 17171 ft 279 kts 134°
2026-04-21 16:41 47.52375 18.65880 16804 ft 277 kts 134°
2026-04-21 16:41 47.51092 18.67984 16440 ft 275 kts 134°
2026-04-21 16:42 47.49819 18.70081 16074 ft 273 kts 134°
2026-04-21 16:42 47.48549 18.72158 15720 ft 271 kts 134°
2026-04-21 16:42 47.47290 18.74228 15359 ft 270 kts 133°
2026-04-21 16:42 47.46032 18.76288 15005 ft 269 kts 133°
2026-04-21 16:43 47.44781 18.78337 14650 ft 268 kts 133°
2026-04-21 16:43 47.43530 18.80376 14295 ft 267 kts 133°
2026-04-21 16:43 47.42290 18.82405 13944 ft 266 kts 133°
2026-04-21 16:43 47.41049 18.84424 13565 ft 265 kts 133°
2026-04-21 16:44 47.39817 18.86438 13206 ft 263 kts 133°
2026-04-21 16:44 47.38593 18.88426 12869 ft 261 kts 133°
2026-04-21 16:44 47.37365 18.90429 12524 ft 259 kts 133°
2026-04-21 16:44 47.36156 18.92397 12180 ft 258 kts 133°
2026-04-21 16:45 47.34956 18.94359 11840 ft 257 kts 133°
2026-04-21 16:45 47.33823 18.96378 11504 ft 255 kts 121°
2026-04-21 16:45 47.33163 18.98790 11164 ft 253 kts 103°
2026-04-21 16:45 47.33001 19.01322 10836 ft 249 kts 83°
2026-04-21 16:46 47.33340 19.03811 10506 ft 243 kts 65°
2026-04-21 16:46 47.34128 19.05977 10187 ft 237 kts 49°
2026-04-21 16:46 47.35261 19.07667 9958 ft 226 kts 31°
2026-04-21 16:46 47.36554 19.08784 9965 ft 206 kts 16°
2026-04-21 16:47 47.37874 19.09350 9965 ft 190 kts
2026-04-21 16:47 47.39190 19.09452 9598 ft 194 kts 352°
2026-04-21 16:47 47.40497 19.09116 8825 ft 195 kts 341°
2026-04-21 16:47 47.41713 19.08303 8505 ft 179 kts 329°
2026-04-21 16:48 47.42674 19.07294 8317 ft 161 kts 317°
2026-04-21 16:48 47.43393 19.06187 8110 ft 139 kts 311°
2026-04-21 16:48 47.44046 19.05135 7928 ft 140 kts 313°
2026-04-21 16:48 47.44708 19.04058 7744 ft 143 kts 312°
2026-04-21 16:49 47.45394 19.02954 7555 ft 148 kts 313°
2026-04-21 16:49 47.45866 19.02188 7423 ft 150 kts 312°
2026-04-21 16:49 47.46571 19.01032 7227 ft 152 kts 313°
2026-04-21 16:49 47.47290 18.99872 7016 ft 154 kts 312°
2026-04-21 16:50 47.48024 18.98674 6745 ft 159 kts 313°
2026-04-21 16:50 47.48771 18.97458 6528 ft 160 kts 313°
2026-04-21 16:50 47.49521 18.96243 6309 ft 160 kts 314°